Retour au catalogue

BUGSAT 1

ActifSciencePO
NORAD 40014·PAYLOAD·🇦🇷 Argentina

Lancé Jun 19, 2014 depuis Dombarovsky

Loading…

Prochains Passages (prochaines 24 heures)

TLE

FraisSource: Space-Track

Époque: Sep 14, 2026, 12:54 UTC

1 40014U 14033E   26257.53771410  .00004913  00000-0  25493-3 0  9993
2 40014  98.0430 355.3638 0026312 234.0200 125.8592 15.16365266669377

Suivez BUGSAT 1 en temps réel avec AllMySat

Download on the App Store